[[{"header":{"parameterUnit":"m.s-1","parameterCategory":1,"la1":30.2991,"la2":30.254,"lo1":-89.0895,"lo2":-89.0444,"dy":0.0017,"dx":0.0017,"nx":28,"ny":28,"refTime":"2023-10-01T03:00:00:Z","depth":0,"parameterNumber":2,"parameterNumberName":"U-component_of_WINDS"},"data":[0,0,0,0,0,0,0,0,0,0,0,0,0,0,0,0,0,0,0,0,0,0,0,0,0,0,0,0,0,0,0,0,0,0,0,0,0,0,0,0,0,0,0,0,0,0,0,0,0,0,0,0,0,0,0,0,0,0,-5.9686,-5.9687,0,-5.9735,-5.9736,-5.9736,-5.9522,-5.9516,-5.9509,-5.9504,-5.9558,-5.9565,-5.9572,0,0,0,0,0,0,0,0,0,0,0,0,0,-5.941,-5.9416,-5.9686,-5.9687,-5.9687,-5.9735,-5.9736,-5.9736,-5.9523,-5.9515,-5.9508,-5.9501,-5.9556,-5.9564,-5.9573,0,0,0,0,0,0,0,0,0,0,0,0,0,-5.9502,-5.9418,-5.9686,-5.9586,-5.9578,-5.9735,-5.9736,-5.9736,-5.9525,-5.9515,-5.9506,-5.9497,-5.9553,-5.9563,-5.9574,-5.983,0,0,-5.9608,-5.9612,0,0,0,0,0,0,0,0,-5.9497,-5.9512,-5.96,-5.9594,-5.9584,-5.9613,-5.9658,-5.9768,-5.9527,-5.9545,-5.9503,-5.9492,-5.9584,-5.9592,-5.9622,-5.9833,-5.9835,-5.9609,-5.9615,-5.962,-5.9623,0,0,0,0,0,0,0,-5.949,-5.9509,-5.9705,-5.9602,-5.9592,-5.954,-5.9543,-5.9678,-5.9617,-5.9543,-5.9527,-5.9536,-5.9578,-5.9612,-5.9622,-5.9836,-5.9608,-5.9618,-5.9625,-5.9629,-6.0257,-6.0267,0,0,0,0,0,0,-5.9497,-5.9505,-5.9704,-5.9707,-5.9516,-5.9553,-5.9556,-5.9613,-5.9615,-5.9606,-5.9544,-5.9526,-5.9598,-5.9609,-5.9623,-5.9921,-5.962,-5.963,-5.9636,-6.0247,-6.026,-6.027,0,0,0,0,0,0,-5.9492,-5.9517,-5.9702,-5.9602,-5.9621,-5.9567,-5.9634,-5.9619,-5.9653,-5.9616,-5.9604,-5.959,-5.9591,-5.9607,-5.9779,-5.992,-5.9635,-5.9645,-6.0235,-6.0251,-6.0265,-6.0522,0,0,0,0,0,0,-5.9485,-5.9516,-5.9613,-5.9605,-5.9627,-5.9858,-5.9642,-5.9627,-5.9672,-5.9648,-5.9655,-5.9648,-5.9585,-5.9764,-5.979,-5.993,-5.9653,-6.0222,-6.0242,-6.026,-6.05,-6.0544,-6.0581,0,0,0,0,0,-5.9476,-5.9684,-5.9619,-5.9644,-5.9747,-5.9867,-5.9879,-5.9801,-5.9684,-5.978,-5.9756,-5.9647,-5.9901,-5.9784,-5.9811,-5.9956,-6.0213,-6.0237,-6.0259,-6.0482,-6.0535,-6.058,0,0,0,0,0,0,-5.9711,-5.9681,-5.9608,-5.982,-5.9848,-5.983,-5.9949,-5.986,-5.9922,-5.9898,-5.98,-5.9803,-5.9993,-5.9991,-5.9862,-6.0203,-6.0037,-6.0066,-6.0197,-6.0247,-6.0287,-6.0283,-5.9663,0,0,0,0,0,-5.9787,-5.9886,-5.9855,-6.0045,-6.0062,-6.0005,-6.0054,-5.9991,-6.0016,-6.0027,-6.0015,-6.0044,-6.0129,-6.0188,-6.0265,-6.0499,-6.0497,-6.0612,-6.0653,-6.0686,-6.0713,-6.0835,-6.0886,-6.0345,-6.0345,-6.0345,0,0,-5.9946,-5.9942,-6.0011,-6.0093,-6.0106,-6.0211,-6.0016,-6.0135,-6.0213,-6.0045,-6.0206,-6.0199,-6.0225,-6.0429,-6.0518,-6.0434,-6.0861,-6.0715,-6.0742,-6.075,-6.0864,-6.0915,-6.0961,-6.0361,-6.0358,-6.0356,0,0,-6.029,-6.0297,-6.0455,-6.0473,-6.0495,-6.0454,-6.0493,-6.0489,-6.0477,-6.0637,-6.0513,-6.0604,-6.0754,-6.0777,-6.0808,-6.1159,-6.1061,-6.1187,-6.1398,-6.1518,-6.1561,-6.1598,-6.1723,-6.1769,-6.1214,-6.1215,-6.1215,0,-6.0485,-6.0637,-6.0549,-6.0676,-6.0716,-6.0567,-6.0727,-6.0748,-6.0796,-6.0827,-6.0731,-6.0915,-6.0922,-6.1128,-6.1214,-6.1245,-6.1285,-6.1186,-6.1562,-6.1598,-6.1632,-6.1749,-6.1797,-6.123,-6.1228,-6.1226,-6.1225,0,-6.0876,-6.0984,-6.1109,-6.1157,-6.121,-6.1354,-6.1287,-6.1352,-6.1285,-6.1255,-6.1419,-6.1422,-6.1496,-6.1541,-6.1477,-6.1739,-6.1686,-6.1578,-6.1408,-6.17,-6.1809,-6.1853,-6.1251,-6.1246,-6.1242,-6.1238,0,0,-6.137,-6.1365,-6.1412,-6.1431,-6.1445,-6.1527,-6.1664,-6.1734,-6.1792,-6.1829,-6.1941,-6.2071,-6.1971,-6.2007,-6.1944,-6.205,-6.2327,-6.1929,-6.1928,-6.2002,-6.2615,-6.2696,-6.2749,-6.2262,-6.227,-6.2277,-6.2612,0,-6.1706,-6.1937,-6.1861,-6.2096,-6.2194,-6.2054,-6.2173,-6.2195,-6.217,-6.225,-6.2223,-6.2316,-6.2177,-6.2198,-6.2297,-6.2273,-6.2449,-6.2248,-6.2366,-6.2371,-6.2363,-6.2806,-6.2892,-6.3209,-6.2654,-6.2662,-6.2667,0,-6.2128,-6.2181,-6.2426,-6.2421,-6.2459,-6.2568,-6.2626,-6.2704,-6.2726,-6.27,-6.274,-6.2655,-6.2789,-6.2619,-6.2802,-6.2667,-6.2711,-6.2707,-6.2717,-6.2725,-6.2537,-6.2826,-6.3308,-6.3355,-6.2733,-6.2728,-6.2723,0,-6.2463,-6.2595,-6.2758,-6.2779,-6.2778,-6.2857,-6.286,-6.2872,-6.2919,-6.2971,-6.3,-6.3068,-6.3105,-6.3159,-6.3094,-6.2977,-6.3288,-6.3113,-6.327,-6.3273,-6.3342,-6.3339,-6.3838,-6.3372,-6.3371,-6.337,-6.3369,0,-6.2846,-6.3001,-6.2908,-6.3009,-6.3178,-6.3089,-6.326,-6.3247,-6.3259,-6.3355,-6.3239,-6.3331,-6.324,-6.3325,-6.3276,-6.3435,-6.3453,-6.3436,-6.3421,-6.3446,-6.3448,-6.3473,-6.345,-6.3383,-6.338,-6.3378,-6.3376,0,-6.3248,-6.3192,-6.336,-6.3345,-6.3344,-6.347,-6.3457,-6.355,-6.3516,-6.3639,-6.3663,-6.3611,-6.3705,-6.3645,-6.3741,-6.3707,-6.3915,-6.387,-6.3907,-6.3895,-6.4056,-6.4041,-6.4588,-6.4655,-6.4148,-6.4152,-6.4157,0,-6.3496,-6.3611,-6.3608,-6.3663,-6.3673,-6.3764,-6.3811,-6.3728,-6.3781,-6.3814,-6.3903,-6.3986,-6.4048,-6.4204,-6.4175,-6.4247,-6.4203,-6.4389,-6.4213,-6.4234,-6.4205,-6.4198,-6.4209,-6.4425,-6.4431,-6.4436,-6.444,0,-6.3941,-6.3907,-6.3978,-6.4041,-6.41,-6.4146,-6.4181,-6.4234,-6.415,-6.4216,-6.4309,-6.4358,-6.4453,-6.4538,-6.4598,-6.4601,-6.4508,-6.4496,-6.4536,-6.4563,-6.4579,-6.4571,-6.4004,-6.4484,-6.4479,-6.4476,-6.4474,-6.4472,-6.4272,-6.4368,-6.438,-6.4464,-6.4481,-6.4518,-6.4603,-6.458,-6.4656,-6.4726,-6.4673,-6.4784,-6.4801,-6.4872,-6.4888,-6.4973,-6.4898,-6.4956,-6.4971,-6.4987,-6.5008,-6.4566,-6.4984,-6.4983,-6.4982,-6.4981,-6.498,0,-6.471,-6.4711,-6.4788,-6.4841,-6.4907,-6.4812,-6.4846,-6.4908,-6.5006,-6.503,-6.5093,-6.52,-6.528,-6.5258,-6.533,-6.5404,-6.5362,-6.5425,-6.5419,-6.5421,-6.5072,-6.503,-6.5457,-6.5457,-6.5457,-6.5457,-6.5457,-6.5457,-6.4946,-6.5103,-6.5071,-6.5235,-6.5234,-6.534,-6.5368,-6.5401,-6.5419,-6.5543,-6.5609,-6.5593,-6.5599,-6.567,-6.574,-6.5731,-6.5763,-6.5842,-6.5818,-6.5493,-6.5446,-6.5401,-6.536,-6.585,-6.5851,-6.6159,-6.6162,-6.6164]},{"header":{"parameterUnit":"m.s-1","parameterCategory":1,"la1":30.2991,"la2":30.254,"lo1":-89.0895,"lo2":-89.0444,"dy":0.0017,"dx":0.0017,"nx":28,"ny":28,"refTime":"2023-10-01T03:00:00:Z","depth":0,"parameterNumber":3,"parameterNumberName":"V-component_of_WINDS"},"data":[0,0,0,0,0,0,0,0,0,0,0,0,0,0,0,0,0,0,0,0,0,0,0,0,0,0,0,0,0,0,0,0,0,0,0,0,0,0,0,0,0,0,0,0,0,0,0,0,0,0,0,0,0,0,0,0,0,0,-2.2999,-2.2999,0,-2.3035,-2.3036,-2.3036,-2.3029,-2.3029,-2.3028,-2.3027,-2.3063,-2.3065,-2.3066,0,0,0,0,0,0,0,0,0,0,0,0,0,-2.292,-2.2921,-2.2999,-2.2999,-2.3,-2.3035,-2.3036,-2.3036,-2.3029,-2.3029,-2.3028,-2.3027,-2.3063,-2.3065,-2.3067,0,0,0,0,0,0,0,0,0,0,0,0,0,-2.2955,-2.2922,-2.2999,-2.3,-2.3001,-2.3035,-2.3036,-2.3036,-2.303,-2.3029,-2.3028,-2.3027,-2.3062,-2.3064,-2.3067,-2.3101,0,0,-2.3074,-2.3075,0,0,0,0,0,0,0,0,-2.2953,-2.2958,-2.3,-2.3,-2.3001,-2.3027,-2.3021,-2.3058,-2.303,-2.3019,-2.3027,-2.3026,-2.3052,-2.3055,-2.3064,-2.3103,-2.3104,-2.3074,-2.3076,-2.3077,-2.3077,0,0,0,0,0,0,0,-2.2951,-2.2956,-2.3013,-2.3,-2.3001,-2.2999,-2.3002,-2.3028,-2.304,-2.302,-2.3019,-2.3024,-2.3052,-2.3062,-2.3065,-2.3105,-2.3074,-2.3076,-2.3078,-2.3079,-2.317,-2.3171,0,0,0,0,0,0,-2.2948,-2.2954,-2.3012,-2.3014,-2.2974,-2.3001,-2.3005,-2.3019,-2.304,-2.3042,-2.3024,-2.3023,-2.3058,-2.3062,-2.3066,-2.3106,-2.3077,-2.3079,-2.308,-2.3169,-2.3171,-2.3172,0,0,0,0,0,0,-2.2946,-2.2953,-2.301,-2.2984,-2.2991,-2.3003,-2.3019,-2.3021,-2.303,-2.3044,-2.3046,-2.3032,-2.3058,-2.3063,-2.3092,-2.3107,-2.308,-2.3082,-2.3168,-2.317,-2.3171,-2.3186,0,0,0,0,0,0,-2.2944,-2.2953,-2.2966,-2.2985,-2.2993,-2.3037,-2.302,-2.3022,-2.3035,-2.3033,-2.3052,-2.3054,-2.3057,-2.3088,-2.3094,-2.3109,-2.3084,-2.3167,-2.3169,-2.3171,-2.3184,-2.3188,-2.3191,0,0,0,0,0,-2.2941,-2.2969,-2.2967,-2.2974,-2.301,-2.3038,-2.3042,-2.3046,-2.3036,-2.3049,-2.3057,-2.3053,-2.3104,-2.3091,-2.3098,-2.3114,-2.3166,-2.3168,-2.3171,-2.3183,-2.3187,-2.3191,0,0,0,0,0,0,-2.2953,-2.2972,-2.297,-2.3005,-2.3019,-2.3036,-2.3053,-2.3051,-2.3069,-2.3067,-2.307,-2.3074,-2.3104,-2.3112,-2.3097,-2.3147,-2.3134,-2.3137,-2.3141,-2.3145,-2.3148,-2.3145,-2.3086,0,0,0,0,0,-2.2959,-2.298,-2.2996,-2.3025,-2.3032,-2.3042,-2.3054,-2.3055,-2.3071,-2.3077,-2.3087,-2.3102,-2.3121,-2.3133,-2.3152,-2.3185,-2.3188,-2.32,-2.3203,-2.3206,-2.3209,-2.3225,-2.323,-2.3179,-2.3179,-2.3179,0,0,-2.2973,-2.2986,-2.2999,-2.3027,-2.3039,-2.306,-2.3047,-2.307,-2.3085,-2.308,-2.3108,-2.3116,-2.3132,-2.3163,-2.3177,-2.3171,-2.3223,-2.3209,-2.3211,-2.3212,-2.3228,-2.3233,-2.3237,-2.3181,-2.3181,-2.318,0,0,-2.3008,-2.3021,-2.3046,-2.3058,-2.3075,-2.3081,-2.3087,-2.3104,-2.3109,-2.3137,-2.3133,-2.3151,-2.3184,-2.3196,-2.3206,-2.3243,-2.3239,-2.3249,-2.3267,-2.3282,-2.3286,-2.329,-2.3302,-2.3306,-2.3252,-2.3252,-2.3252,0,-2.3023,-2.3055,-2.3059,-2.3082,-2.3093,-2.309,-2.3114,-2.3125,-2.3148,-2.3156,-2.3148,-2.3189,-2.32,-2.3232,-2.3241,-2.325,-2.3256,-2.3247,-2.3286,-2.3289,-2.3292,-2.3304,-2.3308,-2.3253,-2.3253,-2.3253,-2.3253,0,-2.3071,-2.3093,-2.3111,-2.3132,-2.3146,-2.317,-2.3176,-2.3189,-2.3189,-2.3195,-2.3223,-2.3236,-2.3256,-2.3264,-2.3265,-2.3296,-2.3291,-2.3285,-2.3271,-2.3298,-2.3309,-2.3313,-2.3255,-2.3254,-2.3254,-2.3254,0,0,-2.3115,-2.3138,-2.3144,-2.3153,-2.3172,-2.3188,-2.3211,-2.3231,-2.3241,-2.3257,-2.3274,-2.3302,-2.3296,-2.3307,-2.3309,-2.3323,-2.3349,-2.3314,-2.3315,-2.3319,-2.3383,-2.3387,-2.3392,-2.3347,-2.3348,-2.3349,-2.3381,0,-2.3151,-2.3191,-2.3194,-2.323,-2.3249,-2.3246,-2.3265,-2.3278,-2.3284,-2.33,-2.3306,-2.3325,-2.3316,-2.3323,-2.3336,-2.3343,-2.3362,-2.3341,-2.3362,-2.3363,-2.3357,-2.3398,-2.3402,-2.3432,-2.3385,-2.3386,-2.3387,0,-2.3198,-2.3215,-2.3252,-2.3266,-2.3274,-2.3292,-2.3309,-2.3325,-2.3339,-2.3342,-2.3354,-2.3354,-2.3375,-2.3361,-2.339,-2.3376,-2.3385,-2.3389,-2.339,-2.3392,-2.3376,-2.3399,-2.3442,-2.3446,-2.3394,-2.3393,-2.3392,0,-2.3224,-2.3256,-2.3282,-2.329,-2.3308,-2.332,-2.3327,-2.334,-2.3351,-2.3367,-2.3373,-2.3391,-2.34,-2.3413,-2.3416,-2.3406,-2.3445,-2.3432,-2.3447,-2.3446,-2.3454,-2.3454,-2.3498,-2.3462,-2.3462,-2.3462,-2.3462,0,-2.3264,-2.3286,-2.3294,-2.331,-2.3334,-2.3337,-2.3361,-2.3368,-2.338,-2.3396,-2.3394,-2.3409,-2.3413,-2.3429,-2.3432,-2.3454,-2.3459,-2.3461,-2.3461,-2.346,-2.346,-2.3466,-2.3463,-2.3463,-2.3463,-2.3463,-2.3462,0,-2.3297,-2.3303,-2.3331,-2.3345,-2.3349,-2.3366,-2.3378,-2.3392,-2.3398,-2.3418,-2.3423,-2.3431,-2.3449,-2.3454,-2.3475,-2.3477,-2.3503,-2.3502,-2.3498,-2.3498,-2.3512,-2.351,-2.3561,-2.3567,-2.3528,-2.3529,-2.3529,0,-2.3321,-2.3338,-2.3354,-2.3364,-2.3373,-2.339,-2.3401,-2.3405,-2.3416,-2.3432,-2.3444,-2.3462,-2.3476,-2.3505,-2.3512,-2.3528,-2.3527,-2.3543,-2.3529,-2.3527,-2.3525,-2.3524,-2.3524,-2.3546,-2.3546,-2.3547,-2.3547,0,-2.3362,-2.3364,-2.338,-2.3397,-2.341,-2.3424,-2.3436,-2.3445,-2.345,-2.3463,-2.3481,-2.3492,-2.3514,-2.3531,-2.3547,-2.3554,-2.3551,-2.3551,-2.3555,-2.3554,-2.3551,-2.3551,-2.3504,-2.355,-2.355,-2.3549,-2.3549,-2.3549,-2.3391,-2.3405,-2.3418,-2.3435,-2.3445,-2.3457,-2.347,-2.3477,-2.3492,-2.351,-2.3511,-2.3531,-2.3542,-2.3563,-2.3571,-2.3586,-2.3581,-2.3587,-2.3588,-2.359,-2.359,-2.3549,-2.3589,-2.3589,-2.3589,-2.3589,-2.3589,0,-2.343,-2.3438,-2.3454,-2.3472,-2.3485,-2.3482,-2.3495,-2.3506,-2.3523,-2.3535,-2.3548,-2.3569,-2.3585,-2.3593,-2.3609,-2.3618,-2.3617,-2.3622,-2.3621,-2.3622,-2.3595,-2.3589,-2.3623,-2.3623,-2.3623,-2.3623,-2.3623,-2.3623,-2.3453,-2.3476,-2.3479,-2.3507,-2.3514,-2.3533,-2.3541,-2.3551,-2.356,-2.3582,-2.3596,-2.3601,-2.3611,-2.3627,-2.3641,-2.3643,-2.3648,-2.3653,-2.3654,-2.3628,-2.3625,-2.3621,-2.3616,-2.3655,-2.3655,-2.3681,-2.3681,-2.3681]}]]